Le nostre stazioni meteo in Italia

Pubblicità
Il mio iltempo24.it
San Pietro Capofiume, Italia (16144): Temperatura & dewpoint: 13.05.2019 21:00:00 - 19.05.2019 21:00:00 (CEST)San Pietro Capofiume, Italia (16144): velocità del vento: 13.05.2019 21:00:00 - 19.05.2019 21:00:00 (CEST)San Pietro Capofiume, Italia (16144): direzione del vento: 13.05.2019 21:00:00 - 19.05.2019 21:00:00 (CEST)San Pietro Capofiume, Italia (16144): reduced air pressure: 13.05.2019 21:00:00 - 19.05.2019 21:00:00 (CEST)San Pietro Capofiume, Italia (16144): precipitazioni: 13.05.2019 21:00:00 - 19.05.2019 21:00:00 (CEST)
Data & Tempo tt [°C] td [°C] ff [km/h] ff [kn] dd ppp [hPa] rr [mm]
19.05.2019 21:00:00 - - - - - - -
19.05.2019 20:00:00 15,3 12,2 5 3 SSE 1004,7 0,0
19.05.2019 19:00:00 15,9 13,0 4 2 E 1004,5 0,0
19.05.2019 18:00:00 16,1 13,2 6 3 E 1004,4 0,0
19.05.2019 17:00:00 16,4 13,5 8 4 E 1004,4 0,0
19.05.2019 16:00:00 16,0 13,3 9 5 SO 1004,3 1,0
19.05.2019 15:00:00 16,7 13,0 12 7 OSO 1004,1 0,8
19.05.2019 14:00:00 18,2 12,6 10 5 OSO 1004,0 0,0
19.05.2019 13:00:00 17,5 13,0 10 5 O 1004,2 0,0
19.05.2019 12:00:00 16,5 13,2 9 5 ONO 1004,3 0,0
19.05.2019 11:00:00 15,3 12,8 9 5 O 1004,5 0,0
19.05.2019 10:00:00 14,5 12,7 8 4 ONO 1004,7 0,0
19.05.2019 09:00:00 13,4 12,1 10 6 O 1004,7 0,0
19.05.2019 08:00:00 13,2 11,9 12 6 O 1004,4 0,0
19.05.2019 07:00:00 13,2 11,9 11 6 OSO 1004,6 0,0
19.05.2019 06:00:00 13,3 12,0 8 4 O 1004,6 0,0
19.05.2019 05:00:00 13,4 12,1 8 5 OSO 1004,9 0,0
19.05.2019 04:00:00 13,6 12,3 9 5 O 1005,1 0,0
19.05.2019 03:00:00 13,6 12,3 9 5 ONO 1005,4 0,0
19.05.2019 02:00:00 14,1 12,8 6 3 O 1005,8 0,0
19.05.2019 01:00:00 14,0 12,7 - - - 1006,0 0,0
19.05.2019 00:00:00 13,8 12,5 2 1 NNE 1006,2 0,0
18.05.2019 23:00:00 13,8 12,4 4 2 NNE 1006,3 0,0
18.05.2019 22:00:00 14,1 12,7 5 3 NNE 1006,2 0,0
18.05.2019 21:00:00 14,8 13,3 5 3 NE 1006,0 0,0
18.05.2019 20:00:00 15,3 13,7 4 2 NNE 1005,8 1,0
18.05.2019 19:00:00 15,2 13,6 - - - 1005,7 1,4
18.05.2019 18:00:00 14,9 12,9 11 6 NNE 1005,3 1,2
18.05.2019 17:00:00 15,0 12,3 21 11 NE 1005,5 0,0
18.05.2019 16:00:00 14,6 12,1 23 13 NE 1005,4 0,8
18.05.2019 15:00:00 14,9 11,5 27 15 NE 1006,0 0,0
18.05.2019 14:00:00 14,0 11,5 27 15 NE 1006,2 0,0
18.05.2019 13:00:00 14,3 11,8 24 13 NE 1006,2 0,8
18.05.2019 12:00:00 13,3 11,2 23 13 ENE 1006,4 3,4
18.05.2019 11:00:00 15,9 12,6 25 13 NE 1006,1 0,4
18.05.2019 10:00:00 14,1 11,6 17 9 NE 1006,4 0,4
18.05.2019 09:00:00 14,0 11,2 14 8 ENE 1006,7 0,0
18.05.2019 08:00:00 13,2 11,3 15 8 NE 1006,8 0,0
18.05.2019 07:00:00 12,4 10,5 14 8 NE 1007,0 2,0
18.05.2019 06:00:00 12,8 11,2 13 7 ENE 1007,2 1,0
18.05.2019 05:00:00 13,1 11,5 15 8 NE 1007,1 0,0
18.05.2019 04:00:00 13,1 11,7 16 8 NE 1007,6 1,4
18.05.2019 03:00:00 13,2 11,4 15 8 NE 1008,3 1,6
18.05.2019 02:00:00 13,6 11,5 13 7 NE 1008,4 0,0
18.05.2019 01:00:00 13,5 11,2 10 6 ENE 1008,4 0,0
18.05.2019 00:00:00 13,4 11,3 10 5 ENE 1008,5 0,2
17.05.2019 23:00:00 13,8 11,0 6 3 E 1009,0 0,0
17.05.2019 22:00:00 13,9 10,7 4 2 E 1008,9 0,0
17.05.2019 21:00:00 14,2 10,6 8 4 E 1008,9 0,0
17.05.2019 20:00:00 15,4 10,4 10 6 E 1008,7 0,0
17.05.2019 19:00:00 16,5 10,8 11 6 E 1008,8 0,0
17.05.2019 18:00:00 - - - - - - -
17.05.2019 17:00:00 18,7 10,0 11 6 E 1009,2 0,0
17.05.2019 16:00:00 19,0 10,0 14 8 E 1009,5 0,0
17.05.2019 15:00:00 19,3 9,8 14 8 E 1009,9 0,0
17.05.2019 14:00:00 19,1 9,3 13 7 E 1010,0 0,0
17.05.2019 13:00:00 18,4 7,8 14 8 E 1010,4 0,0
17.05.2019 12:00:00 17,6 8,2 17 9 E 1010,7 0,0
17.05.2019 11:00:00 17,2 8,9 12 6 E 1010,6 0,0
17.05.2019 10:00:00 16,3 9,0 12 6 ESE 1011,0 0,0
17.05.2019 09:00:00 15,0 10,2 8 4 E 1011,1 0,0
17.05.2019 08:00:00 12,2 9,6 6 3 ENE 1011,1 0,0
17.05.2019 07:00:00 9,2 8,0 5 3 ENE 1011,0 0,0
17.05.2019 06:00:00 6,3 5,1 - - - 1010,8 0,0
17.05.2019 05:00:00 7,0 5,8 - - - 1010,6 0,0
17.05.2019 04:00:00 7,6 6,2 8 4 NE 1010,7 0,0
17.05.2019 03:00:00 7,9 6,5 - - - 1011,0 0,0
17.05.2019 02:00:00 7,7 6,3 3 2 NE 1011,3 0,0
17.05.2019 01:00:00 9,0 7,3 - - - 1011,6 0,0
17.05.2019 00:00:00 9,9 7,7 3 1 E 1011,7 0,0
16.05.2019 23:00:00 - - - - - - -
16.05.2019 22:00:00 12,3 8,8 6 3 E - 0,0
16.05.2019 21:00:00 13,8 9,2 3 2 E 1011,2 0,0
16.05.2019 20:00:00 16,2 7,7 7 4 ESE 1011,1 0,0
16.05.2019 19:00:00 17,7 7,7 6 3 E 1010,9 0,0
16.05.2019 18:00:00 18,0 8,0 8 4 ESE 1011,2 0,0
16.05.2019 17:00:00 17,4 8,0 7 4 SE 1011,4 0,0
16.05.2019 16:00:00 17,7 9,1 10 5 ESE 1011,8 0,0
16.05.2019 15:00:00 17,9 8,2 3 1 NE 1012,4 0,0
16.05.2019 14:00:00 17,1 7,7 4 2 NE 1012,8 0,0
16.05.2019 13:00:00 17,7 8,0 7 4 NE 1013,1 0,0
16.05.2019 12:00:00 16,9 7,8 5 3 ENE 1013,5 0,0
16.05.2019 11:00:00 15,6 7,4 3 2 SSE 1013,8 0,0
16.05.2019 10:00:00 13,5 8,1 9 5 NO 1014,3 0,0
16.05.2019 09:00:00 11,5 7,0 15 8 NO 1014,4 0,0
16.05.2019 08:00:00 9,2 6,3 12 7 ONO 1014,2 0,0
16.05.2019 07:00:00 6,1 4,4 4 2 ONO 1014,0 0,0
16.05.2019 06:00:00 4,7 3,2 5 3 ONO 1014,0 0,0
16.05.2019 05:00:00 5,1 3,6 6 3 ONO 1014,1 0,0
16.05.2019 04:00:00 5,4 3,7 7 4 NO 1014,4 0,0
16.05.2019 03:00:00 5,4 3,9 4 2 O 1014,7 0,0
16.05.2019 02:00:00 6,2 4,7 8 4 O 1015,4 0,0
16.05.2019 01:00:00 6,7 5,0 8 5 O 1015,8 0,0
16.05.2019 00:00:00 6,7 5,0 6 3 O 1015,7 0,0
15.05.2019 23:00:00 7,7 5,8 6 3 O 1015,6 0,0
15.05.2019 22:00:00 8,9 6,5 2 1 O 1015,3 0,0
15.05.2019 21:00:00 10,1 6,6 1 1 ONO 1014,8 0,0
15.05.2019 20:00:00 12,7 7,2 5 3 ONO 1014,7 0,0
15.05.2019 19:00:00 14,6 5,7 1 1 NNO 1014,4 0,0
15.05.2019 18:00:00 - - - - - - -
15.05.2019 17:00:00 12,9 5,3 9 5 NE 1014,6 0,0
15.05.2019 16:00:00 13,3 5,7 14 7 NE 1014,7 0,0
15.05.2019 15:00:00 13,2 6,3 16 9 NE 1014,8 0,0
15.05.2019 14:00:00 12,2 6,5 14 8 NE 1015,2 0,0
15.05.2019 13:00:00 11,7 5,8 10 5 NE 1015,1 0,0
15.05.2019 12:00:00 10,4 6,0 9 5 ENE 1015,6 0,0
15.05.2019 11:00:00 8,6 5,9 10 5 N 1015,6 0,2
15.05.2019 10:00:00 8,0 6,0 15 8 N 1015,7 0,6
15.05.2019 09:00:00 7,6 5,7 10 6 ONO 1015,6 0,8
15.05.2019 08:00:00 7,3 5,4 8 5 OSO 1015,5 0,4
15.05.2019 07:00:00 6,8 5,0 9 5 O 1015,6 0,2
15.05.2019 06:00:00 7,2 5,0 8 4 OSO 1015,4 0,0
15.05.2019 05:00:00 6,9 4,4 11 6 NE 1015,7 0,0
15.05.2019 04:00:00 6,6 4,9 3 2 E 1015,8 0,0
15.05.2019 03:00:00 5,6 3,9 1 0 NO 1016,4 0,0
15.05.2019 02:00:00 6,5 4,7 6 4 NO 1017,2 0,0
15.05.2019 01:00:00 7,6 6,1 6 4 ESE 1017,7 0,0
15.05.2019 00:00:00 6,7 5,0 4 2 ENE 1018,7 0,0
14.05.2019 23:00:00 7,3 5,3 0 0 ESE 1019,0 0,0
14.05.2019 22:00:00 8,2 5,3 4 2 ESE 1019,4 0,0
14.05.2019 21:00:00 9,8 5,2 3 2 E 1019,3 0,0
14.05.2019 20:00:00 11,6 5,5 9 5 E 1018,9 0,0
14.05.2019 19:00:00 13,7 5,3 12 7 E 1018,3 0,0
14.05.2019 18:00:00 13,8 5,9 15 8 ESE 1018,4 0,0
14.05.2019 17:00:00 15,5 5,7 16 8 ESE 1018,2 0,0
14.05.2019 16:00:00 15,6 6,1 13 7 ESE 1018,2 0,0
14.05.2019 15:00:00 15,6 6,9 16 8 ESE 1018,4 0,0
14.05.2019 14:00:00 15,4 - - - - - -
14.05.2019 13:00:00 15,4 9,3 16 9 ESE 1018,8 0,0
14.05.2019 12:00:00 14,9 8,4 9 5 ESE 1019,1 0,0
14.05.2019 11:00:00 15,0 8,9 5 3 ENE 1019,2 0,0
14.05.2019 10:00:00 13,8 8,4 6 3 ENE 1019,3 0,0
14.05.2019 09:00:00 13,4 8,5 8 5 NE 1019,2 0,0
14.05.2019 08:00:00 12,0 9,2 4 2 N 1019,3 0,0
14.05.2019 07:00:00 11,2 9,3 4 2 NNO 1019,1 0,0
14.05.2019 06:00:00 11,0 9,3 5 3 NNO 1019,3 0,2
14.05.2019 05:00:00 11,1 9,4 4 2 NO 1019,7 0,0
14.05.2019 04:00:00 11,4 9,3 5 3 NNO 1019,9 0,0
14.05.2019 03:00:00 11,3 9,6 4 2 NNO 1020,1 0,0
14.05.2019 02:00:00 11,5 9,6 5 3 ONO 1020,2 0,0
14.05.2019 01:00:00 11,7 9,6 5 3 ONO 1020,6 0,0
14.05.2019 00:00:00 12,0 9,7 4 2 NO 1020,6 0,2
13.05.2019 23:00:00 12,1 9,5 6 4 NNO 1021,0 0,0
13.05.2019 22:00:00 12,3 9,3 7 4 NNO 1020,9 0,0
13.05.2019 21:00:00 12,2 9,0 5 3 N 1020,6 0,0

tt = Temperatura
td = dewpoint
ff = velocità del vento
dd = direzione del vento
ppp = reduced air pressure
rr = precipitazioni

Stazioni seguenti

WeatherPro
AMSI
MeteoEarth